This is the latest recevied weather packets stored in our database for station/object WA4OPQ-3. If no packets are shown the sender has not sent any weather packets the latest 10 day(s).
| Time | Temp. | Humidity | Pressure | Rain* | Wind** | Luminosity | Snow |
|---|---|---|---|---|---|---|---|
| 1777123622 | 16.67° C | 99% | 1009.1 hPa | 0 mm | - | 149 W/m² | - |
| 1777123019 | 16.67° C | 99% | 1009.2 hPa | 0 mm | - | 127 W/m² | - |
| 1777122414 | 16.67° C | 99% | 1009.3 hPa | 0 mm | - | 118 W/m² | - |
| 1777121808 | 16.11° C | 99% | 1009.5 hPa | 0 mm | - | 60 W/m² | - |
| 1777121204 | 15.56° C | 99% | 1009.2 hPa | 0 mm | - | 39 W/m² | - |
| 1777120597 | 15.56° C | 99% | 1009.5 hPa | 0 mm | - | 52 W/m² | - |
| 1777119993 | 15.56° C | 99% | 1008.9 hPa | 0 mm | - | 115 W/m² | - |
| 1777119388 | 15° C | 99% | 1009.1 hPa | 0 mm | - | 100 W/m² | - |
| 1777118784 | 15° C | 99% | 1009.1 hPa | 0 mm | - | 48 W/m² | - |
| 1777118178 | 14.44° C | 99% | 1009 hPa | 0 mm | - | 25 W/m² | - |
| 1777117573 | 14.44° C | 99% | 1008.9 hPa | 0 mm | - | 22 W/m² | - |
| 1777116967 | 14.44° C | 99% | 1008.5 hPa | 0 mm | - | 13 W/m² | - |
| 1777116362 | 14.44° C | 99% | 1008.3 hPa | 0 mm | - | 3 W/m² | - |
| 1777115757 | 13.89° C | 99% | 1008.3 hPa | 0 mm | - | 0 W/m² | - |
| 1777115153 | 13.89° C | 99% | 1008.1 hPa | 0 mm | - | 0 W/m² | - |
| 1777114548 | 13.89° C | 99% | 1008.3 hPa | 0 mm | - | 0 W/m² | - |
| 1777113944 | 13.89° C | 99% | 1008.1 hPa | 0 mm | - | 0 W/m² | - |
| 1777113338 | 13.89° C | 99% | 1007.9 hPa | 0 mm | - | 0 W/m² | - |
| 1777112733 | 13.33° C | 99% | 1008 hPa | 0 mm | - | 0 W/m² | - |
| 1777112127 | 13.33° C | 99% | 1007.9 hPa | 0 mm | - | 0 W/m² | - |
| 1777111522 | 13.33° C | 99% | 1007.9 hPa | 0 mm | - | 0 W/m² | - |
| 1777110918 | 13.33° C | 99% | 1007.9 hPa | 0 mm | - | 0 W/m² | - |
| 1777110313 | 13.33° C | 99% | 1007.7 hPa | 0 mm | - | 0 W/m² | - |
| 1777109709 | 13.33° C | 99% | 1007.7 hPa | 0 mm | - | 0 W/m² | - |
| 1777109104 | 13.33° C | 99% | 1007.6 hPa | 0 mm | - | 0 W/m² | - |
* Rain latest hour (hover to see other rain measurements)
** Current wind speed in m/s (hover to see current wind gust speed)